RH
12 14 48 48 55 71 71 97 98 84 72 80 77 76 76 85 92 55 34 20 22 19 22 27 32 28 32 43 50 53 54 47 45 40 35 37 42 61 73 68 49 64 56 53 60 59 43 46 53
27 44 61 89 98 86 81 93 98 85 82 82 77 78 73 74 66 53 36 18 17 16 19 23 17 18 21 34 40 43 39 34 30 40 49 47 32 24 25 49 62 45 43 42 44 63 54 74 60
77 73 79 89 84 97 89 96 97 88 86 86 85 98 80 66 63 54 35 16 16 16 20 23 18 21 20 30 37 37 52 36 29 34 26 32 38 42 47 47 47 44 29 36 67 77 53 72 41
72 74 81 79 90 98 89 96 97 99 86 89 87 82 74 64 65 56 30 16 18 20 13 23 18 20 26 39 44 44 41 32 26 30 39 50 45 48 52 57 64 59 42 67 55 73 59 38 42
57 71 74 68 98 98 93 97 93 88 88 99 86 84 74 69 65 61 29 16 19 20 12 25 22 20 24 28 34 37 29 26 26 32 44 40 44 52 50 59 54 47 64 33 32 55 32 40 56
36 64 67 71 79 97 94 86 89 96 93 94 88 79 76 68 68 54 27 16 19 22 13 29 26 25 25 28 34 28 24 22 21 36 35 39 48 56 65 64 54 34 33 37 32 36 37 36 39
39 70 60 88 96 99 98 96 96 97 92 92 84 76 74 69 66 50 25 16 18 22 15 28 16 20 21 28 30 22 19 16 19 38 28 39 46 53 56 45 48 54 39 32 29 29 30 29 28
39 73 72 72 66 94 90 96 97 96 98 96 81 74 75 61 59 45 23 15 17 23 14 26 16 24 23 24 23 17 15 19 29 46 30 41 41 51 58 55 41 33 30 31 34 33 32 28 38
37 69 90 98 79 98 86 89 94 90 97 89 78 81 70 59 42 40 25 14 16 22 13 18 14 28 25 27 23 20 14 27 31 35 19 19 37 39 46 54 41 31 32 35 38 36 32 35 44
35 66 73 85 83 90 75 75 71 85 89 88 72 76 68 48 35 34 26 12 16 20 16 13 15 30 28 29 20 18 6 25 26 28 26 25 18 38 41 42 43 46 44 49 47 47 46 74 40
29 65 86 83 84 86 92 94 80 76 79 91 71 77 63 55 43 38 28 13 15 20 14 12 16 27 29 21 20 14 14 15 23 36 24 14 12 19 29 38 36 41 40 50 50 53 52 84 37
31 34 39 80 52 66 90 88 77 94 89 72 73 70 51 49 41 36 26 14 15 20 10 12 13 26 25 18 16 17 24 7 23 29 36 40 41 67 40 34 34 51 83 38 47 95 40 41 30
36 33 46 73 98 77 77 78 70 83 96 94 69 51 46 43 34 34 26 14 15 18 7 8 6 14 14 8 28 82 8 13 18 26 34 46 46 49 43 37 25 34 34 24 24 28 30 34 22
30 69 75 91 99 98 81 87 79 86 90 67 52 46 38 30 30 33 25 14 15 18 6 6 6 6 6 8 14 24 16 17 31 38 43 70 30 42 53 26 90 19 23 36 20 16 12 14 23
24 32 52 76 88 100 97 74 96 97 89 61 41 38 26 22 32 32 23 14 13 17 7 5 7 21 13 22 23 20 26 28 35 37 32 55 56 24 39 18 20 13 19 10 15 13 12 6 8
18 28 39 61 74 97 92 82 98 98 91 70 24 24 21 24 34 33 18 14 13 17 10 5 8 12 19 31 30 24 23 23 24 25 22 24 42 40 32 29 20 11 7 6 7 7 7 7 9
19 23 38 56 60 95 81 80 79 81 91 78 21 14 18 24 31 23 19 16 14 16 15 6 9 16 35 42 34 34 24 24 20 18 16 17 16 53 40 76 19 14 6 5 6 6 6 6 10
11 25 38 41 43 54 98 64 75 97 97 86 45 22 11 13 23 20 18 16 15 14 16 7 17 22 28 34 37 30 27 26 24 19 16 22 39 25 42 48 21 21 8 4 5 7 10 12 14
4 16 26 53 81 68 84 81 93 84 83 85 26 11 12 8 16 15 15 15 15 15 16 7 20 32 35 37 29 28 36 38 24 20 36 50 27 28 29 19 15 32 18 14 16 16 16 15 15
5 5 17 39 73 69 74 88 87 92 92 85 94 12 9 6 15 14 13 15 13 16 16 7 20 26 22 32 29 35 42 23 24 39 57 25 30 24 17 14 12 16 25 20 21 19 17 14 14
11 5 10 32 78 89 79 82 97 92 88 85 97 43 18 5 11 12 10 12 13 14 14 6 15 23 14 19 26 30 26 28 21 33 38 39 31 8 6 10 20 21 18 18 18 23 14 15 15
11 10 8 18 61 84 92 92 52 69 94 95 82 67 14 6 10 22 16 6 16 11 8 5 7 29 18 13 18 23 22 20 28 32 32 46 26 22 22 23 25 20 19 14 18 20 13 13 14
6 13 11 21 34 28 44 98 78 76 68 97 91 48 18 22 12 18 21 15 9 10 10 5 6 9 15 13 14 16 16 17 17 17 34 38 32 25 21 39 36 18 26 24 12 15 18 16 11
7 10 11 12 11 8 28 59 52 62 82 75 94 78 31 18 28 27 28 24 26 15 8 7 5 8 10 12 11 14 14 15 14 15 28 37 22 15 21 21 18 22 26 30 32 11 12 12 12
9 8 9 8 8 5 13 47 21 32 43 43 83 90 55 25 24 28 35 31 33 28 13 10 8 4 8 11 12 12 13 13 12 13 20 25 35 37 43 39 34 24 19 22 29 25 23 4 5
9 10 8 7 4 7 14 13 9 15 26 38 16 35 50 45 32 30 37 41 38 33 16 4 11 8 7 12 13 10 11 13 10 14 17 15 17 14 14 17 26 20 20 15 23 13 10 5 4
14 17 10 11 7 13 13 13 17 21 32 72 48 18 66 77 56 40 42 48 46 38 34 34 7 12 10 14 17 10 10 10 13 17 19 18 15 14 13 10 13 10 11 14 17 26 29 22 7
8 11 35 17 11 12 8 8 20 48 53 54 67 40 39 94 81 76 48 63 53 47 41 36 31 7 10 10 19 21 11 9 9 12 18 19 17 14 11 10 11 10 7 11 12 12 18 18 13
46 24 25 31 20 25 19 9 24 73 61 49 47 52 58 60 42 70 92 66 54 36 39 43 38 22 4 10 10 17 23 18 10 8 10 15 21 18 11 13 10 10 8 8 11 9 12 11 14
26 24 43 43 23 22 27 6 52 73 77 79 65 45 57 60 52 21 18 39 51 87 37 38 38 34 16 3 9 10 17 24 20 11 8 6 8 14 22 20 16 13 9 8 8 10 9 8 8
Wind_Speed
7 5 3 5 7 8 5 6 7 11 9 6 6 9 2 7 7 8 10 10 10 9 10 11 14 13 13 13 14 14 14 13 13 11 10 8 6 5 4 2 3 3 3 3 4 4 4 8 8
7 5 2 5 7 11 9 8 17 9 6 5 6 6 5 5 8 9 10 9 9 9 9 10 13 13 12 13 13 13 13 13 12 11 10 8 7 7 6 5 4 4 4 4 5 6 10 10 10
5 6 1 4 8 5 14 8 14 7 7 5 4 5 5 5 6 7 9 8 8 8 9 9 12 12 11 12 12 12 11 12 13 13 13 12 12 10 7 4 4 6 7 8 7 8 10 11 11
7 3 1 6 10 13 9 4 20 11 7 3 6 3 5 3 5 6 8 9 6 8 7 8 11 12 11 12 12 12 12 14 15 16 18 18 15 12 9 9 10 11 12 12 12 13 16 14 12
4 2 1 3 5 4 7 0 16 7 11 7 6 7 5 4 3 5 8 6 6 7 6 7 10 12 12 13 11 13 13 16 17 20 20 18 17 17 16 17 19 19 17 17 19 20 15 15 15
4 1 3 4 10 9 4 7 9 12 14 13 6 8 6 3 1 5 5 6 5 6 6 7 10 12 11 13 13 13 15 16 19 20 20 20 20 21 23 23 24 24 22 22 22 22 19 18 17
4 3 3 3 9 10 11 3 14 8 12 7 6 7 5 2 2 4 2 5 4 6 7 7 10 12 12 12 12 13 15 16 18 19 20 19 20 21 24 25 24 25 21 22 21 19 18 18 19
5 4 1 4 5 3 3 12 8 15 10 12 7 7 5 4 3 1 2 4 4 5 6 7 10 12 12 12 13 14 17 17 17 18 17 17 19 20 21 21 21 20 20 19 20 18 16 15 18
10 4 2 9 4 8 6 3 5 7 14 8 6 5 6 5 4 2 3 2 4 5 6 7 11 12 12 12 15 15 16 16 15 16 15 17 18 19 20 18 17 18 18 17 17 15 13 16 16
10 7 2 3 7 7 8 3 6 5 7 7 8 8 4 6 6 4 1 2 4 5 5 7 12 12 12 13 15 15 14 14 14 13 14 14 17 17 18 15 18 17 17 15 12 12 12 12 15
12 13 6 8 1 7 19 5 6 6 11 16 10 8 5 7 7 3 2 2 5 5 5 10 13 13 13 14 14 15 12 10 12 14 11 12 14 15 17 16 16 20 18 17 15 9 13 3 15
12 12 14 8 8 4 9 12 13 11 18 17 12 9 6 5 6 2 2 3 5 7 6 11 13 14 14 14 14 13 10 10 9 13 9 11 10 7 14 14 15 18 15 16 15 8 12 13 14
14 14 11 4 5 5 6 6 9 18 24 13 10 9 6 4 4 2 1 3 6 7 7 11 14 15 14 13 12 8 9 8 8 10 9 10 8 9 11 11 12 11 15 15 14 16 11 12 14
16 11 6 8 10 5 9 8 6 10 23 18 13 10 7 3 5 5 3 3 4 7 9 12 15 15 14 12 10 6 7 8 8 9 7 9 11 8 7 8 9 9 10 13 12 13 12 11 11
13 13 15 13 10 9 5 9 7 11 11 14 12 10 5 6 5 4 5 4 6 7 7 13 15 13 13 11 9 7 7 7 8 6 7 7 8 7 5 7 7 7 7 9 12 12 9 9 10
15 14 9 13 11 10 9 10 7 7 14 10 10 6 8 8 8 5 7 5 5 8 8 13 13 12 13 9 8 8 6 6 6 6 5 5 4 5 5 4 5 6 6 7 8 10 10 10 9
12 11 12 11 9 12 14 15 10 9 13 10 6 6 9 10 10 9 6 6 5 8 9 14 13 11 12 7 7 5 6 5 5 4 3 4 6 6 5 1 6 5 6 4 7 9 9 10 10
20 16 13 11 12 10 14 18 13 14 13 10 9 7 9 10 8 11 11 8 6 8 10 15 13 11 9 7 7 7 6 4 4 4 5 5 3 6 4 5 7 6 6 4 7 8 9 10 11
26 27 24 14 4 11 19 19 17 14 14 17 8 9 11 8 9 8 9 11 9 8 11 15 14 11 9 7 8 9 8 7 5 6 9 8 7 5 7 6 8 8 5 7 10 9 10 11 11
25 27 24 17 9 17 21 23 24 14 22 14 18 14 14 10 8 5 7 10 11 11 13 16 17 12 12 10 11 11 10 8 7 9 9 9 11 12 11 10 9 9 7 8 8 10 9 11 11
27 26 25 23 11 18 22 24 20 20 17 12 33 18 15 11 9 7 6 11 11 12 13 17 20 14 11 12 12 11 10 8 9 9 11 12 13 14 13 12 11 9 9 9 8 9 8 9 10
29 26 27 28 29 31 24 26 24 19 19 21 27 24 20 16 10 9 7 7 12 12 15 18 20 18 12 11 12 12 11 11 9 10 12 12 14 15 15 12 11 11 10 9 8 8 6 8 7
30 32 32 32 37 35 31 31 24 20 22 16 28 21 18 21 17 11 9 6 12 13 16 17 20 20 16 12 13 13 12 12 10 11 14 14 15 14 14 12 10 9 9 8 7 6 6 5 3
35 36 37 37 39 40 35 36 31 24 19 18 20 32 21 19 19 16 14 11 6 4 13 17 18 20 19 15 14 14 14 14 13 14 14 13 14 14 13 10 8 5 6 5 5 4 4 3 3
40 39 38 40 38 38 35 40 36 33 25 19 24 16 27 22 24 21 15 12 8 2 6 16 17 19 20 17 15 15 17 15 15 15 14 12 12 11 10 8 5 3 3 4 4 4 3 3 2
44 42 43 41 36 37 33 40 32 36 36 29 32 24 23 32 28 27 20 15 13 8 6 12 19 20 20 18 18 17 17 18 18 16 13 14 13 11 10 7 5 2 1 2 4 5 5 3 2
38 42 41 43 43 43 39 36 23 16 24 31 30 32 25 28 36 36 29 22 18 13 12 9 16 22 23 22 22 21 19 19 21 21 18 15 14 13 10 8 6 3 1 2 6 6 6 5 3
44 37 39 44 47 48 46 39 29 6 6 21 31 36 34 27 35 40 37 29 25 19 17 13 15 20 26 27 25 23 22 22 22 22 21 19 17 15 12 10 8 7 5 4 4 5 4 3 4
35 39 45 44 47 44 47 45 23 6 7 20 29 26 26 30 38 35 38 25 20 26 25 17 15 18 21 25 27 27 24 22 22 21 21 22 19 17 15 13 11 9 8 8 5 4 2 1 1
47 46 41 48 49 50 48 52 31 27 10 14 27 25 25 26 30 38 37 44 41 42 26 19 17 15 19 23 29 29 29 26 24 23 21 21 21 20 20 17 16 14 12 11 7 5 3 2 3
Wind_Direction
188 181 223 294 284 271 295 292 210 136 147 126 148 132 91 67 92 44 43 59 63 69 89 90 94 99 109 110 107 106 110 115 116 112 106 99 90 81 94 128 120 97 106 109 97 79 80 73 72
159 151 233 331 312 257 250 267 99 127 108 121 142 154 98 80 45 36 38 50 67 71 89 90 99 101 110 108 107 106 109 106 104 101 95 90 82 81 93 95 107 91 77 72 70 77 77 72 65
133 145 192 350 359 292 253 140 122 181 172 130 125 112 113 93 55 36 43 49 71 76 96 97 97 97 105 103 109 108 105 93 89 88 85 82 76 67 63 74 88 88 90 89 86 96 105 86 77
139 154 322 1 9 348 71 88 158 192 217 211 157 179 156 124 62 46 45 48 67 80 98 100 103 102 107 104 104 105 95 93 91 87 75 65 57 55 63 72 91 106 104 104 77 111 86 84 86
170 188 279 28 339 329 338 72 172 209 226 189 167 176 184 160 75 65 52 61 66 89 92 102 105 102 106 104 101 99 97 94 86 77 70 64 63 76 80 91 99 104 102 94 91 102 92 92 91
197 207 302 340 313 165 327 295 294 240 239 157 146 177 178 183 41 42 63 74 81 96 105 109 114 108 110 109 104 100 101 93 84 79 72 66 75 83 87 91 95 99 98 95 98 102 104 101 93
210 246 326 354 322 345 319 301 297 233 171 210 151 193 194 215 268 57 74 93 102 108 112 110 111 115 113 112 106 106 103 92 86 80 70 73 86 91 92 95 98 104 97 96 95 95 101 104 100
192 230 290 321 315 9 20 282 286 246 250 135 152 190 196 239 276 49 75 128 114 120 118 116 120 122 119 121 117 118 104 94 88 84 81 81 85 91 94 95 100 96 95 97 94 90 89 89 96
203 201 326 10 306 334 14 205 1 257 185 180 153 190 226 250 280 296 112 120 129 143 126 126 134 131 127 128 125 122 107 98 92 87 87 85 88 86 94 102 100 97 95 96 95 89 94 101 92
207 179 286 232 331 277 300 303 331 122 172 168 188 209 234 277 291 334 92 195 137 160 135 145 136 138 136 133 130 123 111 104 99 97 96 89 91 93 87 91 101 100 102 100 96 100 90 95 90
212 196 181 256 240 285 272 117 273 245 167 178 186 217 222 273 290 310 19 198 156 159 173 149 141 140 136 133 133 123 117 112 108 99 90 91 94 95 96 96 92 95 98 103 104 103 91 46 73
212 213 236 256 273 351 292 290 294 273 213 192 177 221 237 253 288 259 122 179 168 170 181 149 140 140 137 142 133 128 133 126 111 105 104 107 108 48 92 99 97 102 84 97 100 101 65 67 68
212 207 213 236 298 297 258 286 297 302 213 169 188 200 229 228 260 255 129 211 172 179 169 156 140 137 144 134 136 125 138 133 124 126 124 117 104 98 94 86 92 87 100 106 104 94 92 75 72
215 187 262 174 233 247 275 296 272 152 178 160 194 196 205 207 222 175 176 198 176 189 169 162 143 148 146 145 149 141 147 147 134 131 147 143 118 110 84 113 61 94 95 94 94 97 85 79 74
221 228 210 214 214 263 274 261 357 235 182 181 187 188 196 202 202 176 160 182 157 200 169 169 154 158 153 149 149 137 136 135 155 135 129 123 107 124 130 113 113 97 89 97 88 82 84 75 71
211 204 216 231 239 251 251 247 263 264 168 174 185 185 196 197 192 181 141 170 154 195 180 176 163 166 159 152 151 127 142 152 131 132 130 132 137 138 159 116 124 123 122 105 108 96 89 71 79
215 208 201 218 240 251 264 256 259 256 207 199 193 208 195 201 184 151 156 152 163 195 190 179 172 175 167 155 158 162 160 152 137 141 148 176 177 171 158 92 131 139 133 112 89 74 70 81 88
214 209 210 235 211 239 271 265 256 265 192 208 195 217 216 201 187 159 171 161 165 199 194 185 174 179 178 181 167 163 164 171 139 154 145 174 204 169 163 131 126 123 110 112 90 83 87 80 85
218 212 202 172 263 254 261 276 287 267 255 168 196 208 211 204 196 170 178 171 163 191 192 190 183 178 170 190 174 163 169 181 181 156 144 159 165 158 122 132 131 115 124 112 95 92 89 91 93
217 225 219 197 173 264 260 282 269 275 267 247 224 217 192 213 190 188 187 183 174 184 183 191 188 187 178 194 181 176 180 171 167 161 140 149 137 138 134 131 129 121 116 107 98 99 95 99 95
218 217 221 198 176 274 269 266 248 265 264 231 202 203 190 185 180 175 185 174 196 183 184 188 193 191 186 194 187 180 167 163 163 149 140 145 136 130 126 124 124 120 108 98 94 89 94 87 81
220 219 213 217 194 202 233 269 255 272 269 260 230 209 190 178 189 129 121 188 194 201 189 185 197 201 197 194 198 179 166 162 158 148 144 144 137 128 125 124 112 104 99 97 88 89 85 78 71
219 218 212 207 220 224 222 223 236 239 245 265 245 204 201 170 176 175 153 177 194 213 202 193 195 203 205 198 202 186 172 160 157 149 152 157 139 128 123 120 109 105 102 92 89 85 71 58 69
221 220 222 219 221 231 226 231 238 233 242 251 269 225 219 197 182 184 174 159 127 203 218 205 202 199 204 204 204 197 174 168 161 159 160 153 137 135 131 125 117 88 70 77 81 83 94 105 87
229 226 226 229 230 240 231 235 247 249 255 241 250 230 223 214 215 201 190 170 156 138 217 218 209 204 206 206 207 208 185 177 166 167 164 158 160 158 153 145 135 111 52 42 67 85 91 107 117
232 233 231 232 232 238 230 237 248 260 255 260 258 260 251 219 222 213 191 201 182 174 194 212 213 211 206 211 207 212 203 189 175 178 179 172 173 176 172 175 179 168 62 65 73 79 80 103 139
230 235 235 234 232 238 235 233 225 235 254 258 260 258 262 270 217 222 198 203 195 182 188 203 210 213 208 208 211 208 209 210 198 188 192 194 194 195 200 191 200 212 251 132 119 105 91 82 112
229 231 232 233 232 237 236 233 224 208 281 263 265 268 259 258 232 235 222 202 197 196 203 214 228 212 215 207 208 216 209 210 217 206 202 203 204 215 209 213 207 211 209 182 146 130 110 83 73
227 224 222 230 232 233 236 234 211 114 176 271 264 281 285 280 262 244 217 214 226 219 192 205 220 224 214 221 214 217 221 213 216 221 221 217 214 220 218 217 223 216 210 203 192 165 131 94 53
236 232 220 226 227 233 235 228 174 187 179 255 255 246 275 282 285 274 252 248 267 242 215 191 199 220 221 215 223 215 220 224 217 218 220 224 225 219 231 223 222 225 216 218 221 224 207 254 265